Volver al catálogo

STARLINK-36079

ActivoComunicacionesVLEO
NORAD 66897·PAYLOAD·🇺🇸 United States

Lanzado Dec 4, 2025 desde Vandenberg Space Force Base

Loading…

Próximos Pases (próximas 24 horas)

TLE

ActualizadoSource: CelesTrak SupGP

Época: Sep 15, 2026, 03:34 UTC

1 66897C 25283V   26258.14909722 -.00073036  00000+0 -21578-2 0  2586
2 66897  53.1573 220.9018 0001178  89.8065  32.1202 15.34428108    14

Sigue STARLINK-36079 en tiempo real con AllMySat

Download on the App Store